Hourly Data Report for October 17, 2017

All times are specified in Local Standard Time (LST). Add 1 hour to adjust for Daylight Saving Time where and when it is observed.

PANGNIRTUNG
NUNAVUT

66°08'36.300" N
65°42'40.500" W
22.60 m
2403049
71826
WXP

Download Data

Hourly Data (October 2017)
Hourly Data Report for October 17, 2017
Temp Definition
°C
Dew Point Temp Definition
°C
Rel Hum Definition
%
Wind Dir Definition
10's deg

Wind Spd Definition
km/h
Visibility Definition
km
Stn Press Definition
kPa
Hmdx Definition


Wind Chill Definition


Weather Definition


TIME
00:00 -3.7 -8.7 68 14 2   99.74   -5 LegendNANA
01:00 -3.9 -8.8 68 16 3   99.74   -5 LegendNANA
02:00 -3.2 -9.5 62 11 6   99.74   -6 LegendNANA
03:00 -3.5 -9.7 62 11 7   99.73   -6 LegendNANA
04:00 -3.4 -10.5 58 19 1   99.72   -4 LegendNANA
05:00 -3.9 -10.1 62 22 7   99.70   -7 LegendNANA
06:00 -4.0 -9.6 65 25 4   99.67   -6 LegendNANA
07:00 -4.0 -10.0 63 33 11   99.64   -8 LegendNANA
08:00 -4.8 -10.2 66 35 15   99.64   -10 LegendNANA
09:00 -4.5 -10.2 65 34 7   99.61   -8 LegendNANA
10:00 -4.3 -10.9 60 34 7   99.59   -7 LegendNANA
11:00 -3.9 -9.8 64 31 1   99.56   -4 LegendNANA
12:00 -4.1 -9.5 66 25 3   99.54   -5 LegendNANA
13:00 -3.8 -9.6 64 27 3   99.55   -5 LegendNANA
14:00 -4.0 -8.4 72 19 3   99.57   -5 LegendNANA
15:00 -4.1 -9.3 67   0   99.58     LegendNANA
16:00 -4.3 -9.3 68 21 1   99.58   -5 LegendNANA
17:00 -3.8 -10.1 62 24 5   99.59   -6 LegendNANA
18:00 -4.0 -9.3 67 4 3   99.59   -5 LegendNANA
19:00 -3.8 -9.7 64 15 4   99.62   -5 LegendNANA
20:00 -4.2 -9.0 70 21 2   99.67   -5 LegendNANA
21:00 -4.2 -8.6 71 18 4   99.69   -6 LegendNANA
22:00 -4.2 -9.0 69 20 3   99.69   -5 LegendNANA
23:00 -3.9 -8.8 68 16 1   99.70   -4 LegendNANA

Notes on Data Quality.

Legend

  • E = Estimated
  • M = Missing
  • NA = Not Available
  • ‡ = Partner data that is not subject to review by the National Climate Archives
Date modified: